Location: Arbon
(43.0005°N, 0.7472°E)
Time: 15:38:33
(UTC+00:00)

Envisat - Pass Details

Date: 02 November 2020
Orbit: 764 x 766 km, 98.1° (Epoch: 30 November)

Event Time Altitude Azimuth Distance (km) Brightness Sun altitude
Rises 17:51:43 0° 193° (SSW) 3,218 6.5 -12.2°
Reaches altitude 10° 17:54:17 10° 204° (SSW) 2,297 5.9 -12.7°
Maximum altitude 17:58:42 30° 265° (W) 1,352 5.1 -13.5°
Drops below altitude 10° 18:03:09 10° 326° (NW) 2,311 5.8 -14.3°
Sets 18:05:44 0° 337° (NNW) 3,242 6.5 -14.7°
